| time (UTC) | temp F | wind direction | speed MPH | gust MPH | rain 1hr in | rain 24hr in | rain mn in | humidity % | barometer mb |
| 20260510140010 | 72 | 132 | 2.0 | 8.0 | 0.00 | 0.00 | 0.00 | 40 | 1009.1 |
| 20260510134506 | 72 | 148 | 0.0 | 5.0 | 0.00 | 0.00 | 0.00 | 41 | 1009.4 |
| 20260510133013 | 72 | 88 | 1.0 | 5.0 | 0.00 | 0.00 | 0.00 | 44 | 1009.4 |
| 20260510131504 | 72 | 88 | 1.0 | 7.0 | 0.00 | 0.00 | 0.00 | 39 | 1009.7 |
| 20260510130003 | 73 | 127 | 1.0 | 9.0 | 0.00 | 0.00 | 0.00 | 42 | 1009.8 |
| 20260510124605 | 72 | 55 | 2.0 | 5.0 | 0.00 | 0.00 | 0.00 | 42 | 1009.9 |
| 20260510123059 | 72 | 300 | 1.0 | 6.0 | 0.00 | 0.00 | 0.00 | 47 | 1010.1 |
| 20260510121557 | 72 | 192 | 0.0 | 6.0 | 0.00 | 0.00 | 0.00 | 46 | 1010.4 |
| 20260510120054 | 72 | 217 | 3.0 | 7.0 | 0.00 | 0.00 | 0.00 | 45 | 1010.7 |
| 20260510114551 | 71 | 360 | 2.0 | 5.0 | 0.00 | 0.00 | 0.00 | 41 | 1010.8 |
| 20260510113048 | 70 | 273 | 1.0 | 8.0 | 0.00 | 0.00 | 0.00 | 49 | 1011.0 |
| 20260510111604 | 70 | 153 | 1.0 | 9.0 | 0.00 | 0.00 | 0.00 | 44 | 1011.3 |
| 20260510110043 | 70 | 51 | 3.0 | 9.0 | 0.00 | 0.00 | 0.00 | 47 | 1011.5 |
| 20260510104540 | 69 | 124 | 1.0 | 8.0 | 0.00 | 0.00 | 0.00 | 48 | 1011.7 |
| 20260510103038 | 69 | 76 | 2.0 | 9.0 | 0.00 | 0.00 | 0.00 | 50 | 1011.8 |
| 20260510101537 | 69 | 30 | 2.0 | 6.0 | 0.00 | 0.00 | 0.00 | 53 | 1011.7 |
| 20260510100034 | 68 | 134 | 4.0 | 11.0 | 0.00 | 0.00 | 0.00 | 54 | 1012.1 |
| 20260510094532 | 68 | 73 | 3.0 | 8.0 | 0.00 | 0.00 | 0.00 | 57 | 1012.2 |
| 20260510093047 | 67 | 200 | 2.0 | 7.0 | 0.00 | 0.00 | 0.00 | 62 | 1012.4 |
| 20260510091528 | 66 | 144 | 4.0 | 9.0 | 0.00 | 0.00 | 0.00 | 58 | 1012.6 |
| 20260510090039 | 65 | 165 | 2.0 | 8.0 | 0.00 | 0.00 | 0.00 | 61 | 1012.7 |
| 20260510084522 | 65 | 165 | 1.0 | 6.0 | 0.00 | 0.00 | 0.00 | 61 | 1012.9 |
| 20260510083017 | 64 | 194 | 1.0 | 6.0 | 0.00 | 0.00 | 0.00 | 63 | 1012.9 |
| 20260510081514 | 63 | 300 | 0.0 | 2.0 | 0.00 | 0.00 | 0.00 | 66 | 1012.9 |
| 20260510080012 | 63 | 300 | 0.0 | 3.0 | 0.00 | 0.00 | 0.00 | 66 | 1013.3 |
| 20260510074508 | 62 | 264 | 0.0 | 3.0 | 0.00 | 0.00 | 0.00 | 67 | 1013.4 |
| 20260510073006 | 61 | 221 | 1.0 | 2.0 | 0.00 | 0.00 | 0.00 | 68 | 1013.6 |
| 20260510071504 | 60 | 211 | 0.0 | 2.0 | 0.00 | 0.00 | 0.00 | 69 | 1013.6 |
| 20260510070059 | 59 | 211 | 0.0 | 3.0 | 0.00 | 0.00 | 0.00 | 71 | 1013.7 |
| 20260510064605 | 58 | 225 | 0.0 | 3.0 | 0.00 | 0.00 | 0.00 | 71 | 1013.9 |
| 20260510063053 | 57 | 328 | 0.0 | 2.0 | 0.00 | 0.00 | 0.00 | 72 | 1014.0 |
| 20260510061551 | 56 | 350 | 0.0 | 2.0 | 0.00 | 0.00 | 0.00 | 77 | 1013.9 |
| 20260510060046 | 54 | 351 | 0.0 | 0.0 | 0.00 | 0.00 | 0.00 | 79 | 1014.3 |
| 20260510054542 | 50 | 351 | 0.0 | 2.0 | 0.00 | 0.00 | 0.00 | 84 | 1014.4 |
| 20260510053041 | 48 | 19 | 0.0 | 2.0 | 0.00 | 0.00 | 0.00 | 86 | 1014.6 |
| 20260510051540 | 46 | 17 | 0.0 | 3.0 | 0.00 | 0.00 | 0.00 | 86 | 1014.6 |
| 20260510050043 | 45 | 17 | 0.0 | 2.0 | 0.00 | 0.00 | 0.00 | 86 | 1014.8 |
| 20260510044551 | 44 | 338 | 0.0 | 0.0 | 0.00 | 0.00 | 0.00 | 85 | 1014.8 |
| 20260510043037 | 44 | 342 | 0.0 | 0.0 | 0.00 | 0.00 | 0.00 | 85 | 1014.9 |
| 20260510041535 | 44 | 343 | 0.0 | 0.0 | 0.00 | 0.00 | 0.00 | 85 | 1014.8 |
| 20260510040035 | 45 | 343 | 0.0 | 1.0 | 0.00 | 0.00 | 0.00 | 85 | 1014.8 |
| 20260510034532 | 45 | 343 | 0.0 | 0.0 | 0.00 | 0.01 | 0.00 | 84 | 1014.7 |
| 20260510033029 | 45 | 342 | 0.0 | 1.0 | 0.00 | 0.01 | 0.00 | 83 | 1014.9 |
| 20260510031529 | 46 | 342 | 0.0 | 1.0 | 0.00 | 0.01 | 0.00 | 83 | 1014.9 |
| 20260510030035 | 46 | 342 | 0.0 | 0.0 | 0.00 | 0.01 | 0.00 | 83 | 1014.9 |
| 20260510024526 | 46 | 341 | 0.0 | 3.0 | 0.00 | 0.01 | 0.00 | 83 | 1014.9 |
| 20260510023025 | 47 | 342 | 0.0 | 0.0 | 0.00 | 0.01 | 0.00 | 82 | 1015.1 |
| 20260510021528 | 47 | 341 | 0.0 | 3.0 | 0.00 | 0.01 | 0.00 | 82 | 1015.0 |
| 20260510020026 | 47 | 341 | 0.0 | 1.0 | 0.00 | 0.01 | 0.00 | 81 | 1015.2 |
| 20260510014520 | 48 | 342 | 0.0 | 1.0 | 0.00 | 0.01 | 0.00 | 80 | 1015.2 |
| 20260510013018 | 48 | 342 | 0.0 | 2.0 | 0.00 | 0.01 | 0.00 | 80 | 1015.1 |
| 20260510011515 | 49 | 341 | 0.0 | 2.0 | 0.00 | 0.01 | 0.00 | 79 | 1015.4 |
| 20260510010016 | 49 | 342 | 0.0 | 0.0 | 0.00 | 0.01 | 0.00 | 78 | 1015.5 |
| 20260510004511 | 50 | 342 | 0.0 | 1.0 | 0.00 | 0.01 | 0.00 | 77 | 1015.5 |
| 20260510003109 | 50 | 342 | 0.0 | 1.0 | 0.00 | 0.01 | 0.00 | 76 | 1015.6 |
| 20260510001504 | 51 | 341 | 0.0 | 1.0 | 0.00 | 0.01 | 0.00 | 76 | 1015.9 |
| 20260510000002 | 52 | 341 | 0.0 | 2.0 | 0.00 | 0.01 | 0.00 | 74 | 1016.0 |
| 20260509234637 | 53 | 340 | 0.0 | 2.0 | 0.00 | 0.01 | 0.00 | 73 | 1016.1 |
| 20260509233056 | 54 | 103 | 0.0 | 1.0 | 0.00 | 0.01 | 0.00 | 72 | 1016.1 |
| 20260509231553 | 54 | 104 | 0.0 | 1.0 | 0.00 | 0.01 | 0.00 | 71 | 1016.4 |
| 20260509230052 | 55 | 104 | 0.0 | 4.0 | 0.00 | 0.01 | 0.00 | 70 | 1016.5 |
| 20260509224549 | 55 | 305 | 1.0 | 3.0 | 0.00 | 0.01 | 0.00 | 69 | 1016.4 |
| 20260509223047 | 56 | 117 | 2.0 | 8.0 | 0.00 | 0.01 | 0.00 | 68 | 1016.3 |
| 20260509221545 | 56 | 121 | 2.0 | 10.0 | 0.00 | 0.01 | 0.00 | 68 | 1016.2 |
| 20260509220043 | 56 | 5 | 1.0 | 11.0 | 0.00 | 0.01 | 0.00 | 68 | 1016.2 |
| 20260509214543 | 57 | 103 | 5.0 | 11.0 | 0.00 | 0.01 | 0.01 | 67 | 1016.3 |
| 20260509213047 | 57 | 117 | 4.0 | 12.0 | 0.00 | 0.01 | 0.01 | 67 | 1016.2 |
| 20260509211550 | 57 | 138 | 2.0 | 11.0 | 0.00 | 0.01 | 0.01 | 66 | 1016.6 |
| 20260509210041 | 57 | 76 | 3.0 | 10.0 | 0.00 | 0.01 | 0.01 | 66 | 1016.7 |
| 20260509204539 | 58 | 122 | 2.0 | 15.0 | 0.00 | 0.01 | 0.01 | 66 | 1016.7 |
| 20260509203053 | 58 | 148 | 4.0 | 11.0 | 0.00 | 0.01 | 0.01 | 65 | 1016.7 |
| 20260509201539 | 58 | 84 | 3.0 | 9.0 | 0.00 | 0.01 | 0.01 | 64 | 1016.6 |
| 20260509200041 | 59 | 118 | 3.0 | 9.0 | 0.00 | 0.01 | 0.01 | 63 | 1016.5 |
| 20260509194539 | 59 | 109 | 3.0 | 9.0 | 0.00 | 0.01 | 0.01 | 63 | 1016.6 |
| 20260509193036 | 59 | 138 | 1.0 | 7.0 | 0.00 | 0.01 | 0.01 | 63 | 1016.7 |
| 20260509191539 | 60 | 163 | 1.0 | 4.0 | 0.00 | 0.01 | 0.01 | 63 | 1016.6 |
| 20260509190035 | 60 | 117 | 1.0 | 7.0 | 0.00 | 0.01 | 0.01 | 63 | 1016.3 |
| 20260509184535 | 61 | 155 | 0.0 | 5.0 | 0.00 | 0.01 | 0.01 | 62 | 1016.1 |
| 20260509183034 | 62 | 111 | 1.0 | 6.0 | 0.00 | 0.01 | 0.01 | 61 | 1016.0 |
| 20260509181537 | 63 | 147 | 1.0 | 5.0 | 0.00 | 0.01 | 0.01 | 59 | 1015.8 |
| 20260509180034 | 65 | 35 | 1.0 | 5.0 | 0.00 | 0.01 | 0.01 | 58 | 1015.8 |
| 20260509174531 | 66 | 105 | 1.0 | 5.0 | 0.00 | 0.01 | 0.01 | 57 | 1015.8 |
| 20260509173030 | 67 | 126 | 1.0 | 6.0 | 0.00 | 0.01 | 0.01 | 54 | 1015.8 |
| 20260509171532 | 68 | 59 | 2.0 | 6.0 | 0.00 | 0.01 | 0.01 | 51 | 1016.0 |
| 20260509170029 | 68 | 36 | 0.0 | 3.0 | 0.00 | 0.01 | 0.01 | 53 | 1016.0 |
| 20260509164528 | 68 | 32 | 1.0 | 3.0 | 0.00 | 0.01 | 0.01 | 53 | 1016.1 |
| 20260509163027 | 69 | 38 | 0.0 | 3.0 | 0.00 | 0.01 | 0.01 | 51 | 1016.1 |
| 20260509161526 | 70 | 47 | 1.0 | 4.0 | 0.00 | 0.01 | 0.01 | 50 | 1016.2 |
| 20260509160027 | 70 | 30 | 1.0 | 5.0 | 0.00 | 0.01 | 0.01 | 50 | 1016.3 |
| 20260509154524 | 70 | 348 | 1.0 | 6.0 | 0.00 | 0.01 | 0.01 | 51 | 1016.4 |
| 20260509153023 | 71 | 59 | 1.0 | 4.0 | 0.00 | 0.01 | 0.01 | 50 | 1016.5 |
| 20260509151522 | 71 | 317 | 1.0 | 4.0 | 0.00 | 0.01 | 0.01 | 50 | 1016.6 |
| 20260509150021 | 71 | 289 | 1.0 | 5.0 | 0.00 | 0.01 | 0.01 | 50 | 1016.6 |
| 20260509144529 | 70 | 34 | 1.0 | 5.0 | 0.00 | 0.01 | 0.01 | 51 | 1016.8 |
| 20260509143020 | 71 | 57 | 1.0 | 4.0 | 0.00 | 0.01 | 0.01 | 52 | 1017.0 |
| 20260509141516 | 71 | 332 | 0.0 | 3.0 | 0.00 | 0.01 | 0.01 | 55 | 1017.2 |